MUOS-4                  
1 40887U 15044A   19259.13204380 -.00000101  00000-0  00000+0 0  9990
2 40887   3.2736 338.1007 0050885 359.4935 139.7884  1.00272550 14834
ATLAS 5 CENTAUR R/B     
1 40888U 15044B   19258.22690940 -.00000079  00000-0  00000-0 0  9996
2 40888  18.9961  57.7874 6076195 309.8898  10.6668  2.08779126 30788